Weather History for Los Angeles, CA

Change the Weather History Date:

Saturday, July 20, 2013

  Actual Average Record
Temperature  
Mean Temperature 70 °F 69 °F  
Max Temperature 74 °F 74 °F 87 °F (2005)
Min Temperature 65 °F 64 °F 58 °F (1952)
Degree Days  
Heating Degree Days 0 0  
Month to date heating degree days 0 0  
Since 1 June heating degree days 0 25  
Since 1 July heating degree days 0 0  
Cooling Degree Days 5 4  
Month to date cooling degree days 102 72  
Year to date cooling degree days 276 154  
Since 1 June cooling degree days 195 114  
Growing Degree Days 20 (Base 50)    
Moisture  
Dew Point 61 °F    
Average Humidity 76    
Maximum Humidity 87    
Minimum Humidity 64    
Precipitation  
Precipitation 0.00 in 0.00 in 0.19 in (1996)
Month to date precipitation T 0.02  
Year to date precipitation 2.61 8.83  
Since 1 July precipitation T 0.02  
Sea Level Pressure  
Sea Level Pressure 29.85 in    
Wind  
Wind Speed 5 mph (WSW)    
Max Wind Speed 20 mph    
Max Gust Speed 22 mph    
Visibility 8 miles    
Events      
T = Trace of Precipitation, MM = Missing Value Source: NWS Daily Summary

Daily Weather History Graph

Daily Weather History Graph

Search for Another Location

Airport:

Trip Planner

Search our weather history database for the weather conditions in past years. The results will help you decide how hot, cold, wet, or windy it might be!

Date:

Astronomy

Jul. 20, 2013 Rise Set
Actual Time 5:56 AM PDT 8:02 PM PDT
Civil Twilight 5:28 AM PDT 8:30 PM PDT
Nautical Twilight 4:54 AM PDT 9:04 PM PDT
Astronomical Twilight 4:17 AM PDT 9:41 PM PDT
Moon 6:11 PM PDT (7/20) 3:41 AM PDT (7/20)
Length of Visible Light 15h 01m
Length of Day
14h 05m
Waxing Gibbous, 94% of the Moon is Illuminated
Jul 20
Waxing Gibbous
Jul 22
Full
Jul 29
Last Quarter
Aug 6
New
Aug 14
First Quarter

Hourly Weather History & Observations

Time (PDT) Temp. Dew Point Humidity Pressure Visibility Wind Dir Wind Speed Gust Speed Precip Events Conditions
12:53 AM 66.0 °F 60.1 °F 81% 29.87 in 9.0 mi SE 5.8 mph - N/A   Scattered Clouds
1:02 AM 64.4 °F 60.8 °F 88% 29.88 in 8.0 mi South 3.5 mph - N/A   Mostly Cloudy
1:53 AM 66.0 °F 61.0 °F 84% 29.87 in 8.0 mi SSE 3.5 mph - N/A   Overcast
2:53 AM 66.9 °F 60.1 °F 79% 29.86 in 9.0 mi Calm Calm - N/A   Overcast
3:53 AM 66.0 °F 60.1 °F 81% 29.85 in 9.0 mi Calm Calm - N/A   Overcast
4:53 AM 66.9 °F 61.0 °F 81% 29.84 in 8.0 mi Calm Calm - N/A   Overcast
5:53 AM 66.9 °F 61.0 °F 81% 29.84 in 8.0 mi West 5.8 mph - N/A   Overcast
6:53 AM 66.9 °F 61.0 °F 81% 29.86 in 5.0 mi Calm Calm - N/A   Overcast
7:53 AM 68.0 °F 61.0 °F 78% 29.87 in 5.0 mi ESE 3.5 mph - N/A   Haze
8:53 AM 68.0 °F 61.0 °F 78% 29.89 in 7.0 mi ESE 5.8 mph - N/A   Overcast
9:53 AM 72.0 °F 62.1 °F 71% 29.87 in 8.0 mi Variable 3.5 mph - N/A   Overcast
10:11 AM 71.6 °F 60.8 °F 69% 29.88 in 8.0 mi Calm Calm - N/A   Overcast
10:53 AM 71.1 °F 62.1 °F 73% 29.88 in 7.0 mi WSW 8.1 mph - N/A   Overcast
11:53 AM 73.9 °F 61.0 °F 64% 29.87 in 9.0 mi West 11.5 mph - N/A   Mostly Cloudy
12:53 PM 72.0 °F 62.1 °F 71% 29.86 in 8.0 mi WSW 9.2 mph - N/A   Mostly Cloudy
1:53 PM 71.1 °F 62.1 °F 73% 29.86 in 7.0 mi SW 11.5 mph - N/A   Mostly Cloudy
2:10 PM 69.8 °F 60.8 °F 73% 29.87 in 8.0 mi WSW 10.4 mph - N/A   Overcast
2:41 PM 69.8 °F 60.8 °F 73% 29.87 in 7.0 mi West 10.4 mph - N/A   Overcast
2:53 PM 69.1 °F 61.0 °F 75% 29.87 in 8.0 mi West 8.1 mph - N/A   Overcast
3:14 PM 69.8 °F 60.8 °F 73% 29.87 in 8.0 mi West 9.2 mph - N/A   Overcast
3:53 PM 69.1 °F 61.0 °F 75% 29.83 in 8.0 mi West 12.7 mph - N/A   Overcast
4:46 PM 68.0 °F 60.8 °F 78% 29.82 in 8.0 mi West 9.2 mph - N/A   Overcast
4:53 PM 66.9 °F 61.0 °F 81% 29.82 in 8.0 mi WSW 9.2 mph - N/A   Overcast
5:53 PM 66.9 °F 61.0 °F 81% 29.81 in 8.0 mi WSW 8.1 mph - N/A   Mostly Cloudy
6:53 PM 66.9 °F 61.0 °F 81% 29.82 in 9.0 mi West 4.6 mph - N/A   Overcast
7:42 PM 66.2 °F 60.8 °F 83% 29.83 in 9.0 mi WSW 5.8 mph - N/A   Mostly Cloudy
7:53 PM 66.9 °F 61.0 °F 81% 29.82 in 8.0 mi WSW 5.8 mph - N/A   Mostly Cloudy
8:53 PM 66.0 °F 61.0 °F 84% 29.83 in 10.0 mi West 5.8 mph - N/A   Mostly Cloudy
9:53 PM 66.9 °F 62.1 °F 84% 29.84 in 8.0 mi NNW 3.5 mph - N/A   Mostly Cloudy
10:53 PM 66.9 °F 62.1 °F 84% 29.84 in 9.0 mi Variable 4.6 mph - N/A   Scattered Clouds
11:26 PM 66.2 °F 62.6 °F 88% 29.85 in 8.0 mi Calm Calm - N/A   Mostly Cloudy
11:53 PM 66.9 °F 62.1 °F 84% 29.84 in 8.0 mi Calm Calm - N/A   Mostly Cloudy